Location: Unspecified
(0.0000°N, 0.0000°E)
Time: 19:02:03
(UTC+00:00)

Vanguard 2 Rocket - Pass Details

Date: 25 January 2020
Orbit: 554 x 3327 km, 32.9° (Epoch: 20 February)

Event Time Altitude Azimuth Distance (km) Brightness Sun altitude
Rises 23:45:58 0° 229° (SW) 4,922 10.9 -70.0°
Enters shadow 23:46:55 - 229° (SW) 4,588 10.7 -70.1°
Reaches altitude 10° 23:50:00 10° 226° (SW) 3,471 - -70.3°
Maximum altitude 23:57:50 56° 149° (SSE) 1,068 - -70.8°
Drops below altitude 10° 00:02:35 10° 70° (ENE) 2,143 - -71.0°
Sets 00:04:33 0° 66° (ENE) 2,909 - -71.0°
